DW9996 Weather Reports


Display with metric or nautical units.
time (UTC)temp
F
wind
direction
speed
MPH
gust
MPH
rain 1hr
in
rain 24hr
in
rain mn
in
humidity
%
barometer
mb
20260903074509 49 223 4.0 7.0 0.00 0.00 0.00 74 1002.1
20260903073009 50 234 3.0 7.0 0.00 0.00 0.00 73 1002.0
20260903071506 50 213 6.0 9.0 0.00 0.00 0.00 72 1002.0
20260903070004 50 274 3.0 9.0 0.00 0.00 0.00 74 1002.0
20260903064501 49 306 3.0 7.0 0.00 0.00 0.00 73 1001.9
20260903063110 51 228 2.0 6.0 0.00 0.00 0.00 70 1001.6
20260903061558 52 219 5.0 11.0 0.00 0.00 0.00 69 1001.3
20260903060050 52 248 7.0 11.0 0.00 0.00 0.00 71 1001.5
20260903054549 52 224 6.0 12.0 0.00 0.00 0.00 73 1001.7
20260903053107 51 219 6.0 10.0 0.00 0.00 0.00 74 1002.1
20260903051546 51 210 5.0 7.0 0.00 0.00 0.00 74 1002.2
20260903050057 52 223 3.0 7.0 0.00 0.00 0.00 74 1002.1
20260903044556 52 218 5.0 9.0 0.00 0.00 0.00 75 1002.2
20260903043049 53 242 6.0 9.0 0.00 0.00 0.00 74 1002.1
20260903041549 53 246 6.0 10.0 0.00 0.00 0.00 74 1001.9
20260903040040 53 226 4.0 6.0 0.00 0.00 0.00 73 1002.0
20260903034541 54 216 5.0 8.0 0.00 0.00 0.00 72 1001.9
20260903033038 56 253 3.0 7.0 0.00 0.00 0.00 70 1001.8
20260903031538 56 288 2.0 6.0 0.00 0.00 0.00 70 1001.4
20260903030038 58 275 1.0 5.0 0.00 0.00 0.00 66 1001.7
20260903024537 59 221 2.0 10.0 0.00 0.00 0.00 63 1001.5
20260903023037 59 190 6.0 15.0 0.00 0.00 0.00 62 1001.2
20260903021541 60 199 8.0 15.0 0.00 0.00 0.00 60 1000.8
20260903020036 61 186 8.0 14.0 0.00 0.00 0.00 60 1001.0
20260903014535 62 190 4.0 7.0 0.00 0.00 0.00 60 1000.8
20260903013035 64 223 3.0 6.0 0.00 0.00 0.00 56 1000.8
20260903011536 64 224 1.0 9.0 0.00 0.00 0.00 58 1001.4
20260903010034 62 167 3.0 7.0 0.00 0.00 0.00 62 1001.6
20260903004534 63 223 3.0 6.0 0.00 0.00 0.00 59 1001.1
20260903003033 62 289 5.0 15.0 0.00 0.00 0.00 59 1000.5
20260903001532 62 279 10.0 17.0 0.00 0.00 0.00 61 1000.6
20260903000035 61 300 8.0 27.0 0.00 0.00 0.00 64 1001.2
20260902234532 60 277 11.0 23.0 0.00 0.00 0.00 66 1001.2
20260902233031 60 240 12.0 24.0 0.00 0.00 0.00 66 1001.5
20260902231533 61 220 20.0 45.0 0.00 0.00 0.00 63 1001.0
20260902230030 73 207 21.0 36.0 0.00 0.00 0.00 39 999.6
20260902224529 81 140 8.0 14.0 0.00 0.00 0.00 29 997.1
20260902223028 82 164 6.0 12.0 0.00 0.00 0.00 28 997.0
20260902221533 82 111 5.0 11.0 0.00 0.00 0.00 28 997.0
20260902220040 83 143 8.0 14.0 0.00 0.00 0.00 28 997.0
20260902214525 84 150 6.0 16.0 0.00 0.00 0.00 28 997.1
20260902213021 82 146 5.0 11.0 0.00 0.00 0.00 29 997.4
20260902211519 82 162 2.0 11.0 0.00 0.00 0.00 29 997.6
20260902210039 82 119 2.0 12.0 0.00 0.00 0.00 30 997.9
20260902204517 82 187 5.0 13.0 0.00 0.00 0.00 31 998.3
20260902203012 80 124 6.0 15.0 0.00 0.00 0.00 31 998.6
20260902201511 81 152 6.0 15.0 0.00 0.00 0.00 31 998.7
20260902200011 80 171 7.0 13.0 0.00 0.00 0.00 32 998.8
20260902194509 80 175 9.0 18.0 0.00 0.00 0.00 33 999.0
20260902193007 80 202 9.0 16.0 0.00 0.00 0.00 32 999.1
20260902191506 81 194 11.0 17.0 0.00 0.00 0.00 31 999.2
20260902190004 80 184 7.0 16.0 0.00 0.00 0.00 32 999.5
20260902184600 80 227 7.0 16.0 0.00 0.00 0.00 34 999.6
20260902183058 79 171 9.0 21.0 0.00 0.00 0.00 34 999.9
20260902181605 80 181 9.0 18.0 0.00 0.00 0.00 33 1000.0
20260902180113 79 204 9.0 18.0 0.00 0.00 0.00 35 1000.2
20260902174555 79 191 8.0 17.0 0.00 0.00 0.00 37 1000.4
20260902173048 77 207 9.0 16.0 0.00 0.00 0.00 37 1000.6
20260902171545 76 227 9.0 18.0 0.00 0.00 0.00 38 1000.8
20260902170041 75 184 10.0 13.0 0.00 0.00 0.00 40 1000.7
20260902164538 73 159 4.0 11.0 0.00 0.00 0.00 43 1000.7
20260902163035 73 227 4.0 9.0 0.00 0.00 0.00 43 1000.7
20260902161533 72 223 5.0 14.0 0.00 0.00 0.00 43 1000.9
20260902160034 71 227 6.0 10.0 0.00 0.00 0.00 45 1001.1
20260902154527 70 229 4.0 10.0 0.00 0.00 0.00 46 1001.2
20260902153035 70 241 4.0 11.0 0.00 0.00 0.00 47 1001.3
20260902151524 70 227 4.0 9.0 0.00 0.00 0.00 47 1001.4
20260902150020 69 240 4.0 13.0 0.00 0.00 0.00 50 1001.6
20260902144528 68 199 5.0 10.0 0.00 0.00 0.00 51 1001.9
20260902143013 65 214 6.0 11.0 0.00 0.00 0.00 55 1002.0
20260902141509 61 199 5.0 7.0 0.00 0.00 0.00 59 1002.1
20260902140008 58 245 4.0 7.0 0.00 0.00 0.00 62 1002.1
20260902134512 58 247 3.0 7.0 0.00 0.00 0.00 62 1002.2
20260902133007 57 204 4.0 7.0 0.00 0.00 0.00 64 1002.3
20260902131506 55 123 2.0 5.0 0.00 0.00 0.00 67 1002.4
20260902130005 53 109 2.0 4.0 0.00 0.00 0.00 68 1002.4
20260902124506 54 274 0.0 0.0 0.00 0.00 0.00 67 1001.9
20260902123005 54 274 1.0 3.0 0.00 0.00 0.00 68 1001.8
20260902121501 53 101 2.0 6.0 0.00 0.00 0.00 69 1002.1
20260902120001 53 306 1.0 5.0 0.00 0.00 0.00 68 1002.0
20260902114600 54 296 1.0 5.0 0.00 0.00 0.00 68 1002.1
20260902113058 53 277 1.0 4.0 0.00 0.00 0.00 68 1002.2
20260902111557 53 269 1.0 3.0 0.00 0.00 0.00 68 1002.5
20260902110056 53 253 1.0 4.0 0.00 0.00 0.00 65 1002.4
20260902104554 55 227 1.0 5.0 0.00 0.00 0.00 64 1002.2
20260902103054 56 227 2.0 6.0 0.00 0.00 0.00 62 1002.3
20260902101551 56 194 4.0 6.0 0.00 0.00 0.00 60 1002.5
20260902100059 56 169 2.0 4.0 0.00 0.00 0.00 60 1002.6
20260902094601 53 192 3.0 5.0 0.00 0.00 0.00 66 1002.7
20260902093048 53 321 0.0 0.0 0.00 0.00 0.00 65 1002.6
20260902091555 52 321 0.0 0.0 0.00 0.00 0.00 65 1002.9
20260902090046 51 317 0.0 3.0 0.00 0.00 0.00 66 1002.9
20260902084544 51 299 1.0 4.0 0.00 0.00 0.00 65 1003.1
20260902083040 54 309 1.0 5.0 0.00 0.00 0.00 61 1003.0
20260902081536 56 273 3.0 5.0 0.00 0.00 0.00 56 1003.0
20260902080035 60 315 2.0 4.0 0.00 0.00 0.00 54 1002.7